Location: Brodie Road Observatory
(45.4241°N, 74.5431°W)
Time: 18:18:48
(UTC-04:00)

Daily predictions for brighter satellites

Satellite Brightness Start Highest point End
(mag) Time Altitude Azimuth Time Altitude Azimuth Time Altitude Azimuth
Cosmos 1544 4.0 19:09:17 10° SSE 19:12:31 28° E 19:15:47 10° NNE
Cosmos 2237 Rocket 4.0 19:08:02 10° WSW 19:13:09 34° NW 19:18:16 10° N
SAR-Lupe-4 3.5 19:09:40 10° SSE 19:13:12 63° ENE 19:16:45 10° N
Resurs 01 Rocket 2.2 19:13:10 10° SE 19:17:15 37° ENE 19:21:20 10° N
METEOR-M 4.4 19:12:39 10° SE 19:17:47 48° ENE 19:22:55 10° N
COSMO-SKYMED 1 2.7 19:14:42 10° NNE 19:19:05 85° WNW 19:23:25 10° SSW
SL-8 R/B 4.0 19:17:01 10° SW 19:21:38 51° SSE 19:26:10 11° ENE
NOSS 3-2 (A) 3.9 19:16:12 10° SW 19:22:19 69° NW 19:29:04 10° NE
SJ-6B 2.8 19:20:30 10° SSE 19:24:31 75° ENE 19:28:38 10° N
Cosmos 1076 Rocket 3.8 19:20:19 10° NNW 19:24:39 74° W 19:28:59 10° S
ALOS 3.2 19:21:31 10° ESE 19:25:26 27° ENE 19:29:23 10° N
Nadezhda 4 Rocket 4.1 19:19:42 10° N 19:25:51 54° ENE 19:31:54 10° SSE
Cosmos 1484 Rocket 3.7 19:23:41 10° S 19:27:28 53° W 19:31:21 10° NNW
ASTEX 1 4.3 19:25:46 10° NNE 19:29:55 27° E 19:34:01 10° SE
ATLAS CENTAUR R/B 3.8 19:26:19 10° SW 19:31:36 82° SE 19:49:14 10° NE
Cosmos 2151 4.2 19:28:48 10° NNE 19:32:07 22° ENE 19:34:34 14° ESE
Cosmos 1766 Rocket 3.9 19:31:07 10° NNW 19:35:28 69° W 19:39:47 10° S
GP-B 4.4 19:32:11 10° NNE 19:35:29 20° E 19:37:51 14° ESE
SL-16 R/B 3.4 19:30:42 10° SW 19:36:10 46° WNW 19:41:40 10° NNE
Meteor 1-29 3.9 19:33:11 10° NE 19:36:16 28° E 19:39:18 10° SSE
Cosmos 1092 Rocket 4.2 19:30:49 10° N 19:36:48 48° ENE 19:42:42 10° SSE
Cosmos 839 Rocket 4.5 19:29:02 10° NNW 19:36:55 58° NE 19:43:03 11° SE
Cosmos-2242 3.0 19:33:26 10° S 19:37:48 76° E 19:42:13 10° NNE
FENGYUN 3A 4.1 19:33:48 10° SE 19:38:44 39° ENE 19:43:44 10° N
Cosmos 724 4.4 19:34:46 10° SW 19:40:44 87° NW 19:46:53 10° NE
Cosmos 1758 3.4 19:38:07 10° S 19:42:12 83° W 19:46:21 10° N
Cosmos 2221 4.3 19:45:07 14° ENE 19:45:07 14° ENE 19:46:31 10° NE
CENTAUR R/B 2.8 19:39:19 10° S 19:45:02 45° ESE 19:51:27 10° NE
ISS -3.3 19:43:01 10° SW 19:46:13 62° SSE 19:48:06 22° ENE
Meteor 1-21 Rocket 4.3 19:42:46 10° NNW 19:48:21 80° W 19:53:52 10° S
Abrixas 2.3 19:48:51 10° WSW 19:51:51 82° SSE 19:53:12 30° ENE
Meteor 1-28 Rocket 3.4 19:48:22 10° N 19:52:06 73° WNW 19:55:47 10° SSW
GPS 2-04 Rocket1 4.4 19:49:59 10° SW 19:52:15 16° S 19:53:27 14° SSE
NOAA 12 4.5 19:47:10 10° S 19:52:24 67° WSW 19:57:41 10° NNW
Cosmos 2251 Rocket 4.3 19:49:48 10° SSE 19:54:06 27° E 19:58:25 10° NE
Cosmos 1634 Rocket 4.2 19:50:11 10° SSE 19:56:01 44° E 20:01:51 10° NNE
CZ-2D R/B 3.7 19:57:19 24° SE 19:59:11 40° ENE 20:02:52 10° N
Cosmos 1328 4.2 19:56:14 10° N 20:00:01 40° ENE 20:01:42 26° SE
Cosmos 1943 Rocket 2.8 19:55:01 10° NNW 20:00:14 37° NE 20:02:50 25° ESE
Cosmos 1331 Rocket 4.5 19:55:32 10° N 20:00:35 42° ENE 20:03:18 24° ESE
SL-14 R/B 4.3 19:58:04 10° NNE 20:01:33 27° ENE 20:01:44 27° ENE
NOSS 3-2 (C) 4.4 19:57:29 10° WSW 20:03:30 50° NW 20:10:09 10° NNE
ERBS 3.0 20:01:41 10° NW 20:05:03 43° NNE 20:05:53 35° ENE
Cosmos 1500 Rocket 3.5 20:02:34 10° N 20:07:02 89° W 20:11:30 10° S
H-2A R/B 2.9 20:06:03 29° SE 20:07:42 49° ENE 20:11:27 10° N
Cosmos 1842 Rocket 3.4 20:06:35 10° S 20:10:55 83° E 20:15:19 10° N
Helios 1A 3.2 20:07:04 10° S 20:11:15 70° WSW 20:15:29 10° NNW
Cosmos 2369 Rocket 2.2 20:06:04 10° NNW 20:11:46 87° WSW 20:16:53 13° SSE
Cosmos 1943 3.1 20:09:58 10° SSW 20:15:34 70° ESE 20:21:10 10° NNE
Spot 2 Rocket 4.1 20:12:34 10° S 20:17:32 58° W 20:22:31 10° NNW
Cosmos 1048 Rocket 4.4 20:17:59 10° SSW 20:23:14 66° WNW 20:28:27 10° NNE
Cosmos 2263 4.2 20:20:05 10° NNW 20:25:55 88° ENE 20:29:26 25° SSE
Cosmos 1733 3.3 20:23:37 10° SSW 20:27:29 75° W 20:31:22 10° N
Envisat 3.8 20:28:38 31° ENE 20:28:38 31° ENE 20:32:59 10° N
Cosmos 158 Rocket 3.7 20:23:40 10° SSW 20:28:33 88° ESE 20:33:29 10° NNE
USA 215 3.3 20:25:37 20° ENE 20:30:09 57° SE 20:36:33 10° SSW
Gbstr 26 Del rocket 3.2 20:26:20 10° SW 20:30:52 78° SSE 20:32:55 38° ENE
Cosmos 1674 4.1 20:27:42 10° NNW 20:31:22 40° W 20:35:00 10° SSW
Cosmos 1174 3.9 20:29:20 10° SW 20:33:51 76° WNW 20:35:32 32° NNE
Helios 1B rocket 3.3 20:30:15 10° N 20:34:15 49° WNW 20:38:13 10° SW
SL-24 R/B - RUBIN 2 4.5 20:29:12 10° NW 20:35:57 88° SW 20:38:57 34° SSE
Cosmos 1470 3.9 20:36:13 10° SSW 20:39:55 43° WNW 20:43:40 10° N
CZ-4B DEB 3.8 20:39:43 36° SW 20:40:31 45° W 20:43:40 10° NNW
Cosmos 1627 Rocket 4.4 20:34:44 10° N 20:40:59 89° W 20:46:26 14° S
ATLAS 5 CENTAUR R/B 3.9 20:41:32 10° W 20:45:42 26° NNW 20:50:12 10° NNE
Sich 1 4.1 20:45:53 10° N 20:48:36 33° NNE 20:48:36 33° NNE
Resurs 01 Rocket 3.9 20:50:12 10° SSW 20:53:48 24° W 20:57:26 10° NW
ERS-1 Rocket 3.1 20:56:03 58° NE 20:56:03 58° NE 21:00:38 10° N
Cosmos 2058 3.0 20:51:42 10° NNW 20:55:45 72° W 20:55:45 72° W
UNK 4.4 20:38:40 10° WNW 21:00:15 79° NNE 21:02:05 51° E
Meteor 1-16 Rocket 4.2 20:54:58 10° SSW 21:00:15 75° WNW 21:05:38 10° N
Cosmos 1656 Rocket 3.9 20:55:13 10° NNW 21:00:08 50° NE 21:00:08 50° NE
Cosmos 2180 Rocket 4.3 21:00:27 56° SSE 21:01:36 68° E 21:07:43 10° NNE
ALOS 3.7 20:58:30 10° SSW 21:02:45 35° W 21:07:03 10° NNW
Meteor 2-1 Rocket 4.2 20:58:07 11° S 21:03:38 86° E 21:09:35 10° NNE
SL-8 R/B 3.8 20:59:24 10° W 21:04:09 68° NNW 21:04:09 68° NNW
Cosmos 2151 4.5 21:05:41 10° NNW 21:09:31 34° W 21:11:13 24° SW
GP-B 4.3 21:08:49 10° NNW 21:12:59 41° W 21:15:21 22° SW
Cosmos 2279 Rocket 4.0 21:09:24 13° S 21:14:58 81° W 21:21:13 10° N
H-2A R/B 4.0 21:20:18 22° N 21:20:18 22° N 21:22:03 10° N
Cosmos 1805 Rocket 4.3 21:14:42 10° NNW 21:18:29 50° WNW 21:18:29 50° WNW
Cosmos 2221 3.6 21:21:56 41° NW 21:21:56 41° NW 21:25:15 10° N
ISS -0.3 21:19:51 10° W 21:20:46 16° WNW 21:20:46 16° WNW
Cosmos 2266 Rocket 4.2 21:24:05 10° N 21:29:25 61° NNE 21:29:25 61° NNE
CENTAUR R/B 3.6 21:29:44 10° WSW 21:35:44 45° NW 21:42:31 10° NNE
Cosmos 1943 Rocket 3.3 21:38:52 10° NW 21:43:57 36° WSW 21:44:23 36° WSW
USA 215 3.7 22:13:01 55° NNW 22:13:09 55° NNW 22:19:29 10° WSW
